This is the latest recevied weather packets stored in our database for station/object K1FFK-1. If no packets are shown the sender has not sent any weather packets the latest 10 day(s).
| Time | Temp. | Humidity | Pressure | Rain* | Wind** | Luminosity | Snow |
|---|---|---|---|---|---|---|---|
| 1777906894 | 8.89° C | 59% | 1013.3 hPa | 0 mm | - | - | - |
| 1777906294 | 8.33° C | 59% | 1013.1 hPa | 0 mm | - | - | - |
| 1777905694 | 8.33° C | 61% | 1013.2 hPa | 0 mm | - | - | - |
| 1777905094 | 7.78° C | 60% | 1013.2 hPa | 0 mm | - | - | - |
| 1777904495 | 7.78° C | 61% | 1013.1 hPa | 0 mm | - | - | - |
| 1777903894 | 7.22° C | 62% | 1013.2 hPa | 0 mm | - | - | - |
| 1777903294 | 6.67° C | 63% | 1013.3 hPa | 0 mm | - | - | - |
| 1777902693 | 6.11° C | 63% | 1013.2 hPa | 0 mm | - | - | - |
| 1777902094 | 6.11° C | 63% | 1013.1 hPa | 0 mm | - | - | - |
| 1777901494 | 6.11° C | 64% | 1013.1 hPa | 0 mm | - | - | - |
| 1777900895 | 5.56° C | 65% | 1013.2 hPa | 0 mm | - | - | - |
| 1777900296 | 5° C | 67% | 1013.2 hPa | 0 mm | - | - | - |
| 1777899694 | 5° C | 66% | 1013.1 hPa | 0 mm | - | - | - |
| 1777899094 | 4.44° C | 68% | 1013.1 hPa | 0 mm | - | - | - |
| 1777898494 | 4.44° C | 68% | 1013.2 hPa | 0 mm | - | - | - |
| 1777897893 | 4.44° C | 68% | 1013.3 hPa | 0 mm | - | - | - |
| 1777897294 | 3.89° C | 69% | 1013.3 hPa | 0 mm | - | - | - |
| 1777896693 | 3.89° C | 70% | 1013.2 hPa | 0 mm | - | - | - |
| 1777896094 | 3.89° C | 70% | 1013.3 hPa | 0 mm | - | - | - |
| 1777895493 | 3.89° C | 70% | 1013.1 hPa | 0 mm | - | - | - |
| 1777894894 | 3.89° C | 70% | 1013.2 hPa | 0 mm | - | - | - |
| 1777894294 | 3.89° C | 70% | 1013.1 hPa | 0 mm | - | - | - |
| 1777893694 | 3.89° C | 70% | 1012.9 hPa | 0 mm | - | - | - |
| 1777893094 | 3.33° C | 71% | 1012.9 hPa | 0 mm | - | - | - |
| 1777892494 | 3.33° C | 72% | 1012.7 hPa | 0 mm | - | - | - |
* Rain latest hour (hover to see other rain measurements)
** Current wind speed in m/s (hover to see current wind gust speed)